Weather History for Andravida, Greece

Change the Weather History Date:

Sunday, January 6, 2013

  Actual Average Record
Temperature  
Mean Temperature 44 °F -  
Max Temperature 54 °F 55 °F 62 °F (1998)
Min Temperature 33 °F 39 °F 26 °F (2002)
Degree Days  
Heating Degree Days 22    
Moisture  
Dew Point 31 °F    
Average Humidity 59    
Maximum Humidity 93    
Minimum Humidity 22    
Precipitation  
Precipitation 0.00 in - - ()
Sea Level Pressure  
Sea Level Pressure 29.86 in    
Wind  
Wind Speed 6 mph ()    
Max Wind Speed 21 mph    
Max Gust Speed -    
Visibility 6.2 miles    
Events      
Averages and records for this station are not official NWS values.
T = Trace of Precipitation, MM = Missing Value Source: Averaged Metar Reports

Daily Weather History Graph

Daily Weather History Graph

Search for Another Location

Airport:

Trip Planner

Search our weather history database for the weather conditions in past years. The results will help you decide how hot, cold, wet, or windy it might be!

Date:

Astronomy

Jan. 06, 2013 Rise Set
Actual Time 7:51 AM EET 5:30 PM EET
Civil Twilight 7:21 AM EET 5:59 PM EET
Nautical Twilight 6:49 AM EET 6:32 PM EET
Astronomical Twilight 6:17 AM EET 7:04 PM EET
Moon 1:46 AM EET (1/6) 12:43 PM EET (1/6)
Length of Visible Light 10h 37m
Length of Day
9h 39m
Last Quarter, 36% of the Moon is Illuminated
Jan 6
Last Quarter
Jan 11
New
Jan 19
First Quarter
Jan 27
Full
Feb 3
Last Quarter

Hourly Weather History & Observations

Time (EET) Temp. Windchill Dew Point Humidity Pressure Visibility Wind Dir Wind Speed Gust Speed Precip Events Conditions
12:20 AM 42.8 °F - 39.2 °F 87% 29.83 in 6.2 mi Calm Calm - N/A   Partly Cloudy
12:50 AM 42.8 °F 40.1 °F 37.4 °F 81% 29.83 in 6.2 mi SE 4.6 mph - N/A   Partly Cloudy
2:00 AM 42 °F - 38 °F 80% 29.80 in 6 mi Calm Calm - -   Scattered Clouds
3:20 AM 42.8 °F - 37.4 °F 81% 29.80 in 6.2 mi Calm Calm - N/A   Partly Cloudy
4:50 AM 39.2 °F - 35.6 °F 87% 29.74 in 6.2 mi Calm Calm - N/A   Mostly Cloudy
5:50 AM 39.2 °F - 37.4 °F 93% 29.74 in 6.2 mi Calm Calm - N/A   Mostly Cloudy
6:50 AM 46.4 °F 39.8 °F 39.2 °F 76% 29.77 in 6.2 mi NNE 16.1 mph - N/A   Mostly Cloudy
7:20 AM 46.4 °F 39.8 °F 39.2 °F 76% 29.77 in 6.2 mi NNE 16.1 mph - N/A   Mostly Cloudy
7:50 AM 46.4 °F 41.1 °F 35.6 °F 66% 29.77 in 6.2 mi NE 11.5 mph - N/A   Scattered Clouds
8:00 AM 46 °F - 36 °F 59% 29.77 in 6 mi NE 11.5 mph - -   Scattered Clouds
8:20 AM 42.8 °F - 35.6 °F 76% 29.77 in 6.2 mi Calm Calm - N/A   Scattered Clouds
8:50 AM 44.6 °F 41.4 °F 37.4 °F 76% 29.80 in 6.2 mi NW 5.8 mph - N/A   Scattered Clouds
9:20 AM 46.4 °F 43.5 °F 39.2 °F 76% 29.80 in 6.2 mi NW 5.8 mph - N/A   Scattered Clouds
9:50 AM 44.6 °F 40.7 °F 37.4 °F 76% 29.83 in 6.2 mi North 6.9 mph - N/A   Scattered Clouds
10:20 AM 44.6 °F 40.7 °F 37.4 °F 76% 29.83 in 6.2 mi North 6.9 mph - N/A   Partly Cloudy
10:50 AM 53.6 °F - 35.6 °F 51% 29.83 in 6.2 mi North 11.5 mph - N/A   Partly Cloudy
11:20 AM 53.6 °F - 35.6 °F 51% 29.83 in 6.2 mi North 11.5 mph - N/A   Partly Cloudy
11:50 AM 53.6 °F - 30.2 °F 41% 29.86 in 6.2 mi NNE 16.1 mph - N/A   Partly Cloudy
12:20 PM 53.6 °F - 30.2 °F 41% 29.86 in 6.2 mi NNE 16.1 mph - N/A   Partly Cloudy
12:50 PM 53.6 °F - 28.4 °F 38% 29.86 in 6.2 mi North 16.1 mph - N/A   Partly Cloudy
1:20 PM 53.6 °F - 28.4 °F 38% 29.86 in 6.2 mi North 16.1 mph - N/A   Partly Cloudy
1:50 PM 53.6 °F - 24.8 °F 33% 29.83 in 6.2 mi North 20.7 mph - N/A   Partly Cloudy
2:00 PM 53 °F - 26 °F 22% 29.86 in 6 mi North 20.7 mph - -   Scattered Clouds
2:50 PM 53.6 °F - 24.8 °F 33% 29.86 in 6.2 mi North 16.1 mph - N/A   Partly Cloudy
3:50 PM 51.8 °F - 24.8 °F 35% 29.86 in 6.2 mi NNW 18.4 mph - N/A   Partly Cloudy
4:20 PM 51.8 °F - 24.8 °F 35% 29.86 in 6.2 mi NNW 18.4 mph - N/A   Partly Cloudy
4:50 PM 51.8 °F - 23.0 °F 33% 29.89 in 6.2 mi North 16.1 mph - N/A   Partly Cloudy
5:20 PM 51.8 °F - 23.0 °F 33% 29.89 in 6.2 mi North 16.1 mph - N/A   Partly Cloudy
5:50 PM 46.4 °F 41.1 °F 26.6 °F 46% 29.89 in 6.2 mi North 11.5 mph - N/A   Partly Cloudy
6:20 PM 46.4 °F 41.1 °F 26.6 °F 46% 29.89 in 6.2 mi North 11.5 mph - N/A   Partly Cloudy
6:50 PM 42.8 °F 38.6 °F 26.6 °F 53% 29.92 in 6.2 mi North 6.9 mph - N/A   Partly Cloudy
7:20 PM 42.8 °F 38.6 °F 26.6 °F 53% 29.92 in 6.2 mi North 6.9 mph - N/A   Partly Cloudy
7:50 PM 41.0 °F - 26.6 °F 57% 29.92 in 6.2 mi Calm Calm - N/A   Partly Cloudy
8:00 PM 41 °F - 27 °F 46% 29.94 in 6 mi Calm Calm - -   Scattered Clouds
8:20 PM 41.0 °F - 26.6 °F 57% 29.92 in 6.2 mi Calm Calm - N/A   Partly Cloudy
8:50 PM 39.2 °F 35.9 °F 26.6 °F 61% 29.92 in 6.2 mi NE 4.6 mph - N/A   Partly Cloudy
9:20 PM 39.2 °F 35.9 °F 26.6 °F 61% 29.92 in 6.2 mi NE 4.6 mph - N/A   Partly Cloudy
9:50 PM 39.2 °F - 24.8 °F 56% 29.92 in 6.2 mi Calm Calm - N/A   Partly Cloudy
10:20 PM 39.2 °F - 24.8 °F 56% 29.92 in 6.2 mi Calm Calm - N/A   Partly Cloudy
10:50 PM 33.8 °F - 26.6 °F 75% 29.95 in 6.2 mi Calm Calm - N/A   Partly Cloudy
11:20 PM 33.8 °F - 26.6 °F 75% 29.95 in 6.2 mi Calm Calm - N/A   Partly Cloudy
11:50 PM 33.8 °F - 26.6 °F 75% 29.95 in 6.2 mi Calm Calm - N/A   Partly Cloudy